Howell, MI

6:10 PM EST on November 23, 2017 (GMT -0500)
Livingston County

Weather History for KOZW - November, 2011

Change the Weather History Date:

Thursday, November 24, 2011

  Actual Average Record
Temperature  
Mean Temperature 38 °F -  
Max Temperature 44 °F 44 °F 60 °F (2001)
Min Temperature 33 °F 31 °F 10 °F (2013)
Degree Days  
Heating Degree Days 26    
Moisture  
Dew Point 36 °F    
Average Humidity 91    
Maximum Humidity 100    
Minimum Humidity 76    
Precipitation  
Precipitation 0.00 in - - ()
Sea Level Pressure  
Sea Level Pressure 30.16 in    
Wind  
Wind Speed 7 mph (SW)    
Max Wind Speed 14 mph    
Max Gust Speed 21 mph    
Visibility 4 miles    
Events      
Averages and records for this station are not official NWS values.
T = Trace of Precipitation, MM = Missing Value Source: NWS Daily Summary

Daily Weather History Graph

Daily Weather History Graph

Search for Another Location

Airport or City:

Trip Planner

Search our weather history database for the weather conditions in past years. The results will help you decide how hot, cold, wet, or windy it might be!

Date:

Astronomy

Nov. 24, 2011 Rise Set
Actual Time 7:38 AM EST 5:06 PM EST
Civil Twilight 7:07 AM EST 5:37 PM EST
Nautical Twilight 6:32 AM EST 6:12 PM EST
Astronomical Twilight 5:58 AM EST 6:46 PM EST
Moon 6:55 AM EST (11/24) 4:35 PM EST (11/24)
Length of Visible Light 10h 30m
Length of Day
9h 28m
Waning Crescent, 0% of the Moon is Illuminated
Nov 24
Waning Crescent
Nov 25
New
Dec 2
First Quarter
Dec 10
Full
Dec 17
Last Quarter

Hourly Weather History & Observations

Time (EST) Temp. Windchill Dew Point Humidity Pressure Visibility Wind Dir Wind Speed Gust Speed Precip Events Conditions
12:14 AM 37.4 °F 32.1 °F 37.4 °F 100% 30.17 in 3.0 mi WSW 6.9 mph - N/A   Overcast
12:35 AM 37.4 °F 33.8 °F 37.4 °F 100% 30.16 in 3.0 mi WSW 4.6 mph - N/A   Overcast
12:55 AM 35.6 °F 31.7 °F 35.6 °F 100% 30.16 in 3.0 mi WSW 4.6 mph - N/A   Overcast
1:15 AM 35.6 °F 32.8 °F 35.6 °F 100% 30.16 in 2.5 mi WSW 3.5 mph - N/A   Mist
1:35 AM 35.6 °F 32.8 °F 35.6 °F 100% 30.17 in 2.0 mi WSW 3.5 mph - N/A   Mist
1:55 AM 35.6 °F 32.8 °F 35.6 °F 100% 30.17 in 2.0 mi WSW 3.5 mph - N/A   Mist
2:14 AM 35.6 °F - 33.8 °F 93% 30.17 in 2.0 mi Calm Calm - N/A   Mist
2:35 AM 35.6 °F 32.8 °F 33.8 °F 93% 30.17 in 1.8 mi WSW 3.5 mph - N/A   Mist
2:55 AM 35.6 °F - 33.8 °F 93% 30.17 in 1.5 mi Calm Calm - N/A   Mist
3:15 AM 35.6 °F - 35.6 °F 100% 30.17 in 1.8 mi Calm Calm - N/A   Mist
3:35 AM 33.8 °F 30.8 °F 33.8 °F 100% 30.17 in 1.5 mi SW 3.5 mph - N/A   Mist
4:15 AM 33.8 °F 29.6 °F 33.8 °F 100% 30.17 in 1.5 mi SW 4.6 mph - N/A   Mist
4:35 AM 33.8 °F 29.6 °F 33.8 °F 100% 30.17 in 2.5 mi SW 4.6 mph - N/A   Clear
5:15 AM 33.8 °F 29.6 °F 33.8 °F 100% 30.16 in 2.5 mi SW 4.6 mph - N/A   Clear
5:35 AM 33.8 °F 29.6 °F 33.8 °F 100% 30.16 in 2.5 mi SW 4.6 mph - N/A   Clear
6:15 AM 35.6 °F 29.2 °F 33.8 °F 93% 30.15 in 3.0 mi SW 8.1 mph - N/A   Clear
6:55 AM 35.6 °F 26.6 °F 35.6 °F 100% 30.16 in 2.0 mi WSW 13.8 mph 17.3 mph N/A   Overcast
7:15 AM 35.6 °F 27.5 °F 35.6 °F 100% 30.17 in 2.0 mi WSW 11.5 mph 19.6 mph N/A   Overcast
7:34 AM 37.4 °F 30.3 °F 35.6 °F 93% 30.17 in 2.0 mi WSW 10.4 mph - N/A   Overcast
7:55 AM 37.4 °F 30.3 °F 35.6 °F 93% 30.19 in 2.0 mi WSW 10.4 mph - N/A   Overcast
8:35 AM 37.4 °F 30.8 °F 35.6 °F 93% 30.19 in 1.5 mi WSW 9.2 mph 16.1 mph N/A   Overcast
8:55 AM 37.4 °F 30.3 °F 37.4 °F 100% 30.19 in 1.5 mi WSW 10.4 mph - N/A   Overcast
9:15 AM 37.4 °F 29.3 °F 37.4 °F 100% 30.20 in 1.5 mi WSW 12.7 mph - N/A   Overcast
9:35 AM 37.4 °F 30.8 °F 37.4 °F 100% 30.20 in 1.5 mi SW 9.2 mph - N/A   Overcast
9:55 AM 37.4 °F 29.8 °F 37.4 °F 100% 30.20 in 1.8 mi WSW 11.5 mph - N/A   Overcast
10:14 AM 37.4 °F 28.9 °F 37.4 °F 100% 30.20 in 2.0 mi SW 13.8 mph 19.6 mph N/A   Overcast
10:35 AM 39.2 °F 33.0 °F 37.4 °F 93% 30.20 in 2.5 mi SW 9.2 mph 17.3 mph N/A   Overcast
10:55 AM 39.2 °F 32.5 °F 37.4 °F 93% 30.21 in 2.5 mi SW 10.4 mph 17.3 mph N/A   Overcast
11:14 AM 39.2 °F 33.0 °F 37.4 °F 93% 30.21 in 2.5 mi SW 9.2 mph - N/A   Overcast
11:35 AM 39.2 °F 31.6 °F 37.4 °F 93% 30.21 in 3.0 mi SW 12.7 mph 16.1 mph N/A   Overcast
11:55 AM 39.2 °F 31.2 °F 37.4 °F 93% 30.21 in 4.0 mi WSW 13.8 mph - N/A   Overcast
12:14 PM 41.0 °F 33.9 °F 37.4 °F 87% 30.20 in 4.0 mi WSW 12.7 mph 20.7 mph N/A   Overcast
12:35 PM 41.0 °F 33.9 °F 37.4 °F 87% 30.20 in 4.0 mi SW 12.7 mph 18.4 mph N/A   Overcast
12:55 PM 41.0 °F 34.3 °F 37.4 °F 87% 30.19 in 5.0 mi SW 11.5 mph 17.3 mph N/A   Overcast
1:15 PM 41.0 °F 33.5 °F 37.4 °F 87% 30.18 in 5.0 mi SW 13.8 mph 17.3 mph N/A   Overcast
1:35 PM 42.8 °F 36.2 °F 37.4 °F 81% 30.17 in 5.0 mi SW 12.7 mph 17.3 mph N/A   Haze
1:54 PM 42.8 °F 36.2 °F 37.4 °F 81% 30.17 in 4.0 mi SW 12.7 mph 16.1 mph N/A   Haze
2:15 PM 42.8 °F 36.6 °F 37.4 °F 81% 30.16 in 5.0 mi SW 11.5 mph - N/A   Haze
2:35 PM 44.6 °F 38.8 °F 37.4 °F 76% 30.15 in 7.0 mi SW 11.5 mph - N/A   Mostly Cloudy
3:15 PM 44.6 °F 40.2 °F 37.4 °F 76% 30.15 in 7.0 mi SSW 8.1 mph - N/A   Scattered Clouds
3:35 PM 44.6 °F 38.4 °F 37.4 °F 76% 30.14 in 7.0 mi SSW 12.7 mph - N/A   Clear
3:54 PM 44.6 °F 38.4 °F 37.4 °F 76% 30.14 in 7.0 mi SW 12.7 mph 18.4 mph N/A   Clear
4:15 PM 44.6 °F 38.4 °F 37.4 °F 76% 30.13 in 7.0 mi SSW 12.7 mph 16.1 mph N/A   Clear
4:35 PM 42.8 °F 37.0 °F 37.4 °F 81% 30.13 in 5.0 mi SW 10.4 mph - N/A   Haze
4:55 PM 42.8 °F 38.0 °F 37.4 °F 81% 30.13 in 5.0 mi SSW 8.1 mph - N/A   Haze
5:15 PM 42.8 °F 37.5 °F 35.6 °F 76% 30.13 in 7.0 mi SSW 9.2 mph - N/A   Clear
5:55 PM 41.0 °F 36.4 °F 37.4 °F 87% 30.14 in 7.0 mi SSW 6.9 mph - N/A   Clear
6:15 PM 41.0 °F 36.4 °F 37.4 °F 87% 30.14 in 7.0 mi SSW 6.9 mph - N/A   Clear
6:35 PM 41.0 °F 35.2 °F 37.4 °F 87% 30.13 in 7.0 mi SSW 9.2 mph - N/A   Clear
6:55 PM 41.0 °F 36.4 °F 37.4 °F 87% 30.13 in 7.0 mi SSW 6.9 mph - N/A   Clear
7:15 PM 41.0 °F 35.8 °F 37.4 °F 87% 30.13 in 7.0 mi South 8.1 mph - N/A   Scattered Clouds
7:55 PM 41.0 °F 36.4 °F 37.4 °F 87% 30.13 in 5.0 mi SSW 6.9 mph - N/A   Overcast
8:34 PM 41.0 °F 35.2 °F 37.4 °F 87% 30.12 in 5.0 mi SSW 9.2 mph - N/A   Overcast
8:55 PM 41.0 °F 35.2 °F 37.4 °F 87% 30.11 in 5.0 mi SSW 9.2 mph - N/A   Scattered Clouds
9:15 PM 41.0 °F 35.8 °F 37.4 °F 87% 30.10 in 5.0 mi SSW 8.1 mph - N/A   Clear
9:34 PM 41.0 °F 35.8 °F 37.4 °F 87% 30.10 in 5.0 mi SSW 8.1 mph - N/A   Clear
9:55 PM 41.0 °F 37.1 °F 37.4 °F 87% 30.10 in 5.0 mi SSW 5.8 mph - N/A   Clear
10:14 PM 41.0 °F 36.4 °F 37.4 °F 87% 30.09 in 5.0 mi SSW 6.9 mph - N/A   Clear
10:35 PM 41.0 °F 35.8 °F 39.2 °F 93% 30.09 in 5.0 mi SSW 8.1 mph - N/A   Clear
10:55 PM 41.0 °F 35.8 °F 39.2 °F 93% 30.09 in 5.0 mi SSW 8.1 mph - N/A   Clear
11:14 PM 41.0 °F 35.8 °F 39.2 °F 93% 30.08 in 4.0 mi SSW 8.1 mph - N/A   Clear
11:35 PM 41.0 °F 36.4 °F 37.4 °F 87% 30.08 in 5.0 mi SSW 6.9 mph - N/A   Clear